Content
SEND FEEDBACK

Daily
Averages
Monthly
Summary
United States of America

ST. LOUIS, MISSOURI


Home > North America > United States > Missouri
Elevation: 535 feet     Latitude: 38 45N     Longitude: 090 22W

WEATHER
 
SELECT A DAY
Number of Records: 199,017;   Date Range: 1/1/95 - 10/1/14
 
SHARE

PRINT THIS DATA

[ ← Previous Day ]
WEATHER ALMANAC - MAY 22, 2013
[ Next Day → ]
[ °C ]   °F
Weather ElementAverageHighLow
Temperature68.3 °F75 °F (12:54 pm)63 °F (4:54 am)
Dewpoint57 °F61 °F (1:54 am)53.1 °F (8:54 pm)
Humidity68.3 %90 % (4:54 am)51 % (10:54 am)
Barometer29.75 in29.87 in (11:54 pm)29.68 in (2:54 am)
Wind Speed9.6 mph15 mph (3:54 pm)
Wind Gust25.3 mph (11:54 am)
Weather ElementAverage
Visibility10 mi
Wind DirectionWSW (241.7 °)

Weather ElementTotal
Precipitation---
Cooling Degree Days4 (Base 65)
Growing Degree Days19 (Base 50)
Averaged from 23 records on May 22, 2013
WEATHER CONDITIONS BREAKOUT
WIND DIRECTION BREAKOUT
WEATHER BY HOUR - MAY 22, 2013
[ °C ]   °F
Local TimeTemperatureDewpointHumidityBarometerVisibilityWind DirectionWind SpeedGust SpeedPrecipitationEventsConditions
1:54 AM64.9 °F61.0 °F87 %29.70 in10.0 miSouth (180°)8.1 mphMostly Cloudy
2:54 AM64.9 °F61.0 °F87 %29.68 in10.0 miSSW (200°)6.9 mphOvercast
3:54 AM64.9 °F60.1 °F84 %29.68 in10.0 miSSW (200°)8.1 mphScattered Clouds
4:54 AM63.0 °F60.1 °F90 %29.68 in10.0 miSSW (200°)8.1 mphPartly Cloudy
5:54 AM64.0 °F60.1 °F87 %29.69 in10.0 miSW (220°)8.1 mphOvercast
6:54 AM64.0 °F60.1 °F87 %29.70 in10.0 miSW (230°)9.2 mphMostly Cloudy
7:54 AM66.0 °F60.1 °F81 %29.71 in10.0 miWSW (250°)11.5 mphPartly Cloudy
8:54 AM69.1 °F57.9 °F68 %29.73 in10.0 miWest (260°)8.1 mphScattered Clouds
9:54 AM71.1 °F57.0 °F61 %29.73 in10.0 miSW (230°)8.1 mphPartly Cloudy
10:54 AM73.0 °F54.0 °F51 %29.74 in10.0 miWSW (250°)12.7 mphScattered Clouds
11:54 AM73.0 °F55.0 °F53 %29.74 in10.0 miSW (230°)13.8 mph25.3 mphMostly Cloudy
12:54 PM75.0 °F57.9 °F55 %29.74 in10.0 miWSW (250°)13.8 mph19.6 mphMostly Cloudy
1:54 PM75.0 °F55.9 °F51 %29.75 in10.0 miWSW (240°)13.8 mph20.7 mphMostly Cloudy
2:54 PM73.0 °F55.9 °F55 %29.76 in10.0 miWest (260°)12.7 mphMostly Cloudy
3:54 PM73.0 °F55.9 °F55 %29.76 in10.0 miWSW (250°)15.0 mph20.7 mphMostly Cloudy
4:54 PM73.0 °F55.9 °F55 %29.76 in10.0 miWest (260°)12.7 mphMostly Cloudy
5:54 PM71.1 °F55.9 °F59 %29.77 in10.0 miWest (270°)8.1 mphMostly Cloudy
6:54 PM70.0 °F55.0 °F59 %29.78 in10.0 miWest (280°)9.2 mphOvercast
7:54 PM68.0 °F54.0 °F61 %29.80 in10.0 miWest (280°)8.1 mphMostly Cloudy
8:54 PM64.9 °F53.1 °F65 %29.83 in10.0 miWest (270°)5.8 mphScattered Clouds
9:54 PM63.0 °F55.0 °F75 %29.85 in10.0 miWSW (250°)5.8 mphOvercast
10:54 PM64.0 °F55.0 °F73 %29.86 in10.0 miWest (260°)5.8 mphOvercast
11:54 PM63.0 °F54.0 °F72 %29.87 in10.0 miWSW (240°)6.9 mphOvercast
Hourly data recorded from KSUS, located miles away from St. Louis, Missouri







STORIES FROM OUR PARTNERS